BMCB-6 Weather Reports


time (UTC)temp
C
wind
direction
speed
KPH
gust
KPH
rain 1hr
cm
rain 24hr
cm
rain mn
cm
humidity
%
barometer
mb
20260503055007 12 0 0.0 0.0 0.00 0.00 0.00 74 1013.9
20260503053008 12 0 0.0 0.0 0.00 0.00 0.00 76 1014.1
20260503052007 12 0 0.0 0.0 0.00 0.00 0.00 77 1014.1
20260503050008 12 0 0.0 0.0 0.00 0.00 0.00 79 1014.2
20260503045008 12 0 0.0 0.0 0.00 0.00 0.00 80 1014.2
20260503044007 12 0 0.0 0.0 0.00 0.00 0.00 81 1014.3
20260503043008 12 0 0.0 0.0 0.00 0.00 0.00 82 1014.3
20260503042007 12 0 0.0 0.0 0.00 0.00 0.00 84 1014.3
20260503041008 12 0 0.0 0.0 0.00 0.00 0.00 85 1014.2
20260503040008 12 0 0.0 0.0 0.00 0.00 0.00 85 1014.3
20260503035007 12 0 0.0 0.0 0.00 0.00 0.00 87 1014.3
20260503033008 12 0 0.0 0.0 0.00 0.00 0.00 87 1014.5
20260503032008 12 0 0.0 0.0 0.00 0.00 0.00 87 1014.5
20260503031008 12 0 0.0 0.0 0.00 0.00 0.00 86 1014.4
20260503030008 13 0 0.0 0.0 0.00 0.00 0.00 85 1014.4
20260503025007 13 0 0.0 0.0 0.00 0.00 0.00 85 1014.4
20260503024007 13 0 0.0 0.0 0.00 0.00 0.00 86 1014.6
20260503022008 12 0 0.0 0.0 0.00 0.00 0.00 86 1014.5
20260503021008 12 0 0.0 0.0 0.00 0.00 0.00 86 1014.6
20260503020008 13 0 0.0 0.0 0.00 0.00 0.00 85 1014.7
20260503015008 13 0 0.0 0.0 0.00 0.00 0.00 84 1014.7
20260503014008 13 0 0.0 0.0 0.00 0.00 0.00 85 1014.8
20260503013008 13 0 0.0 0.0 0.00 0.00 0.00 85 1014.9
20260503012008 13 0 0.0 0.0 0.00 0.00 0.00 85 1015.0
20260503005008 13 0 0.0 0.0 0.00 0.00 0.00 84 1015.3
20260503004008 13 0 0.0 0.0 0.00 0.00 0.00 83 1015.4
20260503003008 13 0 0.0 0.0 0.00 0.00 0.00 84 1015.5
20260503002007 13 0 0.0 0.0 0.00 0.00 0.00 85 1015.6
20260503000008 14 0 0.0 0.0 0.00 0.00 0.00 82 1015.7
20260502232008 14 0 0.0 0.0 0.00 0.00 0.00 83 1015.6
20260502231008 14 0 0.0 0.0 0.00 0.00 0.00 84 1015.7
20260502230008 14 0 0.0 0.0 0.00 0.00 0.00 83 1015.7
20260502225008 14 0 0.0 0.0 0.00 0.00 0.00 82 1015.7
20260502224008 14 0 0.0 0.0 0.00 0.00 0.00 82 1015.7
20260502223013 15 0 0.0 0.0 0.00 0.00 0.00 82 1015.6
20260502222008 15 0 0.0 0.0 0.00 0.00 0.00 82 1015.7
20260502220009 15 0 0.0 0.0 0.00 0.00 0.00 81 1015.8
20260502215009 15 0 0.0 0.0 0.00 0.00 0.00 81 1015.9
20260502214008 15 0 0.0 0.0 0.00 0.00 0.00 80 1015.8
20260502212010 16 0 0.0 0.0 0.00 0.00 0.00 78 1015.8
20260502204008 15 0 0.0 0.0 0.00 0.00 0.00 77 1016.0
20260502203008 15 0 0.0 0.0 0.00 0.00 0.00 77 1016.1
20260502200009 15 0 0.0 0.0 0.00 0.00 0.00 78 1016.2
20260502195008 15 0 0.0 0.0 0.00 0.00 0.00 78 1016.1
20260502194008 16 0 0.0 0.0 0.00 0.00 0.00 77 1016.0
20260502193009 16 0 0.0 0.0 0.00 0.00 0.00 76 1015.9
20260502192009 16 0 0.0 0.0 0.00 0.00 0.00 76 1015.9
20260502190009 16 0 0.0 0.0 0.00 0.00 0.00 74 1015.7
20260502183008 17 0 0.0 0.0 0.00 0.00 0.00 71 1015.7
20260502182008 17 0 0.0 0.0 0.00 0.00 0.00 71 1015.7
20260502181008 17 0 0.0 0.0 0.00 0.00 0.00 71 1015.7
20260502164008 20 0 0.0 0.0 0.00 0.00 0.00 63 1015.7
20260502163008 20 0 0.0 0.0 0.00 0.00 0.00 63 1015.8
20260502162008 20 0 0.0 0.0 0.00 0.00 0.00 62 1015.9
20260502161009 20 0 0.0 0.0 0.00 0.00 0.00 60 1016.0
20260502152009 22 0 0.0 0.0 0.00 0.00 0.00 57 1016.1
20260502121008 20 0 0.0 0.0 0.00 0.00 0.00 67 1019.1
20260502115008 20 0 0.0 0.0 0.00 0.00 0.00 68 1019.5
20260502113008 20 0 0.0 0.0 0.00 0.00 0.00 67 1019.8
20260502112008 20 0 0.0 0.0 0.00 0.00 0.00 66 1019.9
20260502111007 20 0 0.0 0.0 0.00 0.00 0.00 66 1019.9
20260502110007 20 0 0.0 0.0 0.00 0.00 0.00 65 1019.9
20260502101007 20 0 0.0 0.0 0.00 0.00 0.00 69 1020.4
20260502091008 18 0 0.0 0.0 0.00 0.00 0.00 71 1020.8